TOMSK-TPU 120 (42910 NORAD) Tracking and Keplerian Element Data

This shows tracking and keplerian element data for the satellite.

Feedback or suggestion? Click here.




ElementValue
Catalog42910
NameTOMSK-TPU 120
Epoch Orbit7115
Epoch Day319.82756789
Epoch Year2018
RAAN315.4939
Inclination51.637
Eccentricity0.0006731
Argument of Perigee63.0742
Mean Anonmoly359.3443
Mean Motion15.69675638
Decay Rate0.00021242
L11 42910U 98067MZ 18319.82756789 .00021242 00000-0 17957-3 0 9993
L22 42910 51.6370 315.4939 0006731 63.0742 359.3443 15.69675638 71154

Live tracking and technical data element details for TOMSK-TPU 120 (NORAD 42910). TOMSK-TPU 120 can be tracked NOW for your location showing map with azimuth and elevation plus other details from your city location.

Track the satellite on the map from your city or location and see movement details for azimuth, elevation, latitude, longitude, range, height, and movement on the map or in text.







IsCatalogInMostPopularTable: catalog: 42910, numindb: 156
Update: records affected: 1



GetName: 42910 TOMSK-TPU 120

Hit Count: updated at: Mon, 19 Nov 2018 13:18:23 GMT